Skip Page Navigation
NASA JPL Caltech
NASA Logo - Jet Propulsion Laboratory + View the NASA Portal
+ Center for Near-Earth Object Studies
JPL Home Earth Solar System Stars & Galaxies Technology
JPL Solar System Dynamics
BODIES ORBITS EPHEMERIDES TOOLS PHYSICAL DATA DISCOVERY FAQ SITE MAP
JPL Small-Body Database Browser
Search: [ help ]  
15193 (5148 T-2)
Classification: Main-belt Asteroid          SPK-ID: 2015193
Ephemeris | Orbit Diagram | Orbital Elements | Mission Design | Physical Parameters | Discovery Circumstances ]

[ show orbit diagram ]
Orbital Elements at Epoch 2459396.5 (2021-Jul-01.0) TDB
Reference: JPL 33 (heliocentric ecliptic J2000)
 Element Value Uncertainty (1-sigma)   Units 
e .2176368064966523 3.1222e-08  
a 2.296404380469533 6.991e-09 au
q 1.79662226467922 7.3869e-08 au
i 6.3440095591997 3.7043e-06 deg
node 308.6953918395628 2.8173e-05 deg
peri 40.06990445529392 2.9352e-05 deg
M 269.9385226609058 9.5926e-06 deg
tp 2459714.485665443677
(2022-May-14.98566544)
3.4511e-05 TDB
period 1271.074414299354
3.48
5.8044e-06
1.589e-08
d
yr
n .2832249598843828 1.2934e-09 deg/d
Q 2.796186496259845 8.5126e-09 au
  Orbit Determination Parameters
   # obs. used (total)      1632  
   data-arc span      17435 days (47.73 yr)  
   first obs. used      1973-09-19  
   last obs. used      2021-06-14  
   planetary ephem.      DE441  
   SB-pert. ephem.      SB441-N16  
   condition code      0  
   norm. resid. RMS      .47306  
   source      ORB  
   producer      Otto Matic  
   solution date      2021-Jul-08 03:45:44  

Additional Information
 Earth MOID = .794232 au 
 Jupiter MOID = 2.63992 au 
 T_jup = 3.555 
[ show covariance matrix ]

Ephemeris | Orbit Diagram | Orbital Elements | Mission Design | Physical Parameters | Discovery Circumstances ]

Physical Parameter Table
Parameter Symbol Value Units Sigma Reference Notes
absolute magnitude H 14.69   n/a MPO614063  

15193 (5148 T-2)          Discovered 1973-Sep-25 by van Houten, C. J., van Houten-Groeneveld, I., Gehrels, T. at Palomar
Reference: 20000523/Numbers.arcLast Updated: 2004-04-19

Alternate Designations
 5148 T-2 = 1987 SS14 
Ephemeris | Orbit Diagram | Orbital Elements | Mission Design | Physical Parameters | Discovery Circumstances ]
ABOUT SSD CREDITS/AWARDS PRIVACY/COPYRIGHT GLOSSARY LINKS
FirstGov 2021-Jul-29 20:02 UT
(server date/time)  
NASA Home Page
Site Manager:   Ryan S. Park
Webmaster  Alan B. Chamberlin